Year,Month,Day,Hour,Minute,Value (Times are PST for temperature in C)
2018,06,01,09,01,11.70
2018,06,01,09,02,11.70
2018,06,01,09,03,11.70
2018,06,01,09,04,11.70
2018,06,01,09,05,11.80
2018,06,01,09,06,11.80
2018,06,01,09,07,11.90
2018,06,01,09,08,11.90
2018,06,01,09,09,11.90
2018,06,01,09,10,12.00
2018,06,01,09,11,12.00
2018,06,01,09,12,12.10
2018,06,01,09,13,12.10
2018,06,01,09,14,12.10
2018,06,01,09,15,12.10
2018,06,01,09,16,12.20
2018,06,01,09,17,12.20
2018,06,01,09,18,12.20
2018,06,01,09,19,12.30
2018,06,01,09,20,12.30
2018,06,01,09,21,12.30
2018,06,01,09,22,12.40
2018,06,01,09,23,12.40
2018,06,01,09,24,12.50
2018,06,01,09,25,12.60
2018,06,01,09,26,12.70
2018,06,01,09,27,12.70
2018,06,01,09,28,12.70
2018,06,01,09,29,12.80
2018,06,01,09,30,12.80
2018,06,01,09,31,12.80
2018,06,01,09,32,12.80
2018,06,01,09,33,12.80
2018,06,01,09,34,12.80
2018,06,01,09,35,12.90
2018,06,01,09,36,12.90
2018,06,01,09,37,12.90
2018,06,01,09,38,13.00
2018,06,01,09,39,13.00
2018,06,01,09,40,13.00
2018,06,01,09,41,13.00
2018,06,01,09,42,13.00
2018,06,01,09,43,13.00
2018,06,01,09,44,13.00
2018,06,01,09,45,12.90
2018,06,01,09,46,12.90
2018,06,01,09,47,12.90
2018,06,01,09,48,12.80
2018,06,01,09,49,12.80
2018,06,01,09,50,12.70
2018,06,01,09,51,12.80
2018,06,01,09,52,12.80
2018,06,01,09,53,12.80
2018,06,01,09,54,12.80
2018,06,01,09,55,12.80
2018,06,01,09,56,12.90
2018,06,01,09,57,12.90
2018,06,01,09,58,12.90
2018,06,01,09,59,13.00
2018,06,01,10,00,13.00
2018,06,01,10,01,13.10
2018,06,01,10,02,13.10
2018,06,01,10,03,13.00
2018,06,01,10,04,13.00
2018,06,01,10,05,12.90
2018,06,01,10,06,12.90
2018,06,01,10,07,12.90
2018,06,01,10,08,12.90
2018,06,01,10,09,12.90
2018,06,01,10,10,12.90
2018,06,01,10,11,12.90
2018,06,01,10,12,12.90
2018,06,01,10,13,13.00
2018,06,01,10,14,12.90
2018,06,01,10,15,12.90
2018,06,01,10,16,13.00
2018,06,01,10,17,13.00
2018,06,01,10,18,13.10
2018,06,01,10,19,13.10
2018,06,01,10,20,13.10
2018,06,01,10,21,13.20
2018,06,01,10,22,13.20
2018,06,01,10,23,13.20
2018,06,01,10,24,13.20
2018,06,01,10,25,13.20
2018,06,01,10,26,13.10
2018,06,01,10,27,13.10
2018,06,01,10,28,13.10
2018,06,01,10,29,13.00
2018,06,01,10,30,13.00
2018,06,01,10,31,13.00
2018,06,01,10,32,13.00
2018,06,01,10,33,13.10
2018,06,01,10,34,13.10
2018,06,01,10,35,13.10
2018,06,01,10,36,13.10
2018,06,01,10,37,13.10
2018,06,01,10,38,13.10
2018,06,01,10,39,13.10
2018,06,01,10,40,13.10
2018,06,01,10,41,13.10
2018,06,01,10,42,13.10
2018,06,01,10,43,13.10
2018,06,01,10,44,13.10
2018,06,01,10,45,13.10
2018,06,01,10,46,13.20
2018,06,01,10,47,13.20
2018,06,01,10,48,13.10
2018,06,01,10,49,13.10
2018,06,01,10,50,13.10
2018,06,01,10,51,13.10
2018,06,01,10,52,13.10
2018,06,01,10,53,13.10
2018,06,01,10,54,13.10
2018,06,01,10,55,13.20
2018,06,01,10,56,13.20
2018,06,01,10,57,13.20
2018,06,01,10,58,13.20
2018,06,01,10,59,13.20
2018,06,01,11,00,13.30
2018,06,01,11,01,13.30
2018,06,01,11,02,13.30
2018,06,01,11,03,13.30
2018,06,01,11,04,13.20
2018,06,01,11,05,13.20
2018,06,01,11,06,13.20
2018,06,01,11,07,13.20
2018,06,01,11,08,13.20
2018,06,01,11,09,13.10
2018,06,01,11,10,13.10
2018,06,01,11,11,13.10
2018,06,01,11,12,13.10
2018,06,01,11,13,13.10
2018,06,01,11,14,13.10
2018,06,01,11,15,13.10
2018,06,01,11,16,13.20
2018,06,01,11,17,13.20
2018,06,01,11,18,13.10
2018,06,01,11,19,13.10
2018,06,01,11,20,13.00
2018,06,01,11,21,13.00
2018,06,01,11,22,13.00
2018,06,01,11,23,12.90
2018,06,01,11,24,12.90
2018,06,01,11,25,12.90
2018,06,01,11,26,12.90
2018,06,01,11,27,12.90
2018,06,01,11,28,12.90
2018,06,01,11,29,13.00
2018,06,01,11,30,12.90
2018,06,01,11,31,12.90
2018,06,01,11,32,12.90
2018,06,01,11,33,12.90
2018,06,01,11,34,12.90
2018,06,01,11,35,12.90
2018,06,01,11,36,13.00
2018,06,01,11,37,13.00
2018,06,01,11,38,13.10
2018,06,01,11,39,13.10
2018,06,01,11,40,13.10
2018,06,01,11,41,13.10
2018,06,01,11,42,13.10
2018,06,01,11,43,13.10
2018,06,01,11,44,13.10
2018,06,01,11,45,13.10
2018,06,01,11,46,13.10
2018,06,01,11,47,13.10
2018,06,01,11,48,13.10
2018,06,01,11,49,13.10
2018,06,01,11,50,13.10
2018,06,01,11,51,13.10
2018,06,01,11,52,13.10
2018,06,01,11,53,13.10
2018,06,01,11,54,13.20
2018,06,01,11,55,13.20
2018,06,01,11,56,13.20
2018,06,01,11,57,13.20
2018,06,01,11,58,13.20
2018,06,01,11,59,13.20
2018,06,01,12,00,13.20
2018,06,01,12,01,13.20
2018,06,01,12,02,13.20
2018,06,01,12,03,13.30
2018,06,01,12,04,13.30
2018,06,01,12,05,13.30
2018,06,01,12,06,13.30
2018,06,01,12,07,13.30
2018,06,01,12,08,13.30
2018,06,01,12,09,13.30
2018,06,01,12,10,13.40
2018,06,01,12,11,13.40
2018,06,01,12,12,13.40
2018,06,01,12,13,13.40
2018,06,01,12,14,13.40
2018,06,01,12,15,13.40
2018,06,01,12,16,13.40
2018,06,01,12,17,13.50
2018,06,01,12,18,13.40
2018,06,01,12,19,13.40
2018,06,01,12,20,13.40
2018,06,01,12,21,13.50
2018,06,01,12,22,13.50
2018,06,01,12,23,13.50
2018,06,01,12,24,13.50
2018,06,01,12,25,13.60
2018,06,01,12,26,13.60
2018,06,01,12,27,13.70
2018,06,01,12,28,13.70
2018,06,01,12,29,13.70
2018,06,01,12,30,13.70
2018,06,01,12,31,13.80
2018,06,01,12,32,13.80
2018,06,01,12,33,13.80
2018,06,01,12,34,13.80
2018,06,01,12,35,13.80
2018,06,01,12,36,13.80
2018,06,01,12,37,13.90
2018,06,01,12,38,13.80
2018,06,01,12,39,13.80
2018,06,01,12,40,13.80
2018,06,01,12,41,13.80
2018,06,01,12,42,13.90
2018,06,01,12,43,13.90
2018,06,01,12,44,13.90
2018,06,01,12,45,13.90
2018,06,01,12,46,13.90
2018,06,01,12,47,13.90
2018,06,01,12,48,13.90
2018,06,01,12,49,13.80
2018,06,01,12,50,13.90
2018,06,01,12,51,13.90
2018,06,01,12,52,13.90
2018,06,01,12,53,13.90
2018,06,01,12,54,13.90
2018,06,01,12,55,13.90
2018,06,01,12,56,13.90
2018,06,01,12,57,14.00
2018,06,01,12,58,14.00
2018,06,01,12,59,14.00
2018,06,01,13,00,14.00
2018,06,01,13,01,14.00
2018,06,01,13,02,14.00
2018,06,01,13,03,14.00
2018,06,01,13,04,14.10
2018,06,01,13,05,14.10
2018,06,01,13,06,14.10
2018,06,01,13,07,14.10
2018,06,01,13,08,14.00
2018,06,01,13,09,14.00
2018,06,01,13,10,13.90
2018,06,01,13,11,13.90
2018,06,01,13,12,13.80
2018,06,01,13,13,13.80
2018,06,01,13,14,13.80
2018,06,01,13,15,13.80
2018,06,01,13,16,13.80
2018,06,01,13,17,13.70
2018,06,01,13,18,13.70
2018,06,01,13,19,13.70
2018,06,01,13,20,13.60
2018,06,01,13,21,13.60
2018,06,01,13,22,13.60
2018,06,01,13,23,13.50
2018,06,01,13,24,13.40
2018,06,01,13,25,13.30
2018,06,01,13,26,13.30
2018,06,01,13,27,13.30
2018,06,01,13,28,13.30
2018,06,01,13,29,13.20
2018,06,01,13,30,13.20
2018,06,01,13,31,13.10
2018,06,01,13,32,13.00
2018,06,01,13,33,13.00
2018,06,01,13,34,12.90
2018,06,01,13,35,12.80
2018,06,01,13,36,12.80
2018,06,01,13,37,12.80
2018,06,01,13,38,12.70
2018,06,01,13,39,12.70
2018,06,01,13,40,12.70
2018,06,01,13,41,12.60
2018,06,01,13,42,12.60
2018,06,01,13,43,12.60
2018,06,01,13,44,12.60
2018,06,01,13,45,12.60
2018,06,01,13,46,12.60
2018,06,01,13,47,12.60
2018,06,01,13,48,12.60
2018,06,01,13,49,12.60
2018,06,01,13,50,12.60
2018,06,01,13,51,12.60
2018,06,01,13,52,12.60
2018,06,01,13,53,12.60
2018,06,01,13,54,12.60
2018,06,01,13,55,12.60
2018,06,01,13,56,12.60
2018,06,01,13,57,12.60
2018,06,01,13,58,12.50
2018,06,01,13,59,12.60
2018,06,01,14,00,12.50
2018,06,01,14,01,12.50
2018,06,01,14,02,12.50
2018,06,01,14,03,12.50
2018,06,01,14,04,12.50
2018,06,01,14,05,12.50
2018,06,01,14,06,12.50
2018,06,01,14,07,12.50
2018,06,01,14,08,12.60
2018,06,01,14,09,12.60
2018,06,01,14,10,12.60
2018,06,01,14,11,12.60
2018,06,01,14,12,12.50
2018,06,01,14,13,12.50
2018,06,01,14,14,12.50
2018,06,01,14,15,12.50
2018,06,01,14,16,12.50
2018,06,01,14,17,12.50
2018,06,01,14,18,12.50
2018,06,01,14,19,12.50
2018,06,01,14,20,12.50
2018,06,01,14,21,12.50
2018,06,01,14,22,12.50
2018,06,01,14,23,12.50
2018,06,01,14,24,12.50
2018,06,01,14,25,12.50
2018,06,01,14,26,12.50
2018,06,01,14,27,12.40
2018,06,01,14,28,12.40
2018,06,01,14,29,12.40
2018,06,01,14,30,12.30
2018,06,01,14,31,12.30
2018,06,01,14,32,12.30
2018,06,01,14,33,12.30
2018,06,01,14,34,12.20
2018,06,01,14,35,12.20
2018,06,01,14,36,12.20
2018,06,01,14,37,12.20
2018,06,01,14,38,12.10
2018,06,01,14,39,12.10
2018,06,01,14,40,12.10
2018,06,01,14,41,12.10
2018,06,01,14,42,12.10
2018,06,01,14,43,12.10
2018,06,01,14,44,12.10
2018,06,01,14,45,12.10
2018,06,01,14,46,12.10
2018,06,01,14,47,12.10
2018,06,01,14,48,12.00
2018,06,01,14,49,12.00
2018,06,01,14,50,12.00
2018,06,01,14,51,12.00
2018,06,01,14,52,12.00
2018,06,01,14,53,12.00
2018,06,01,14,54,12.00
2018,06,01,14,55,11.90
2018,06,01,14,56,11.90
2018,06,01,14,57,11.90
2018,06,01,14,58,11.90
2018,06,01,14,59,11.80
2018,06,01,15,00,11.80
2018,06,01,15,01,11.80
2018,06,01,15,02,11.70
2018,06,01,15,03,11.70
2018,06,01,15,04,11.70
2018,06,01,15,05,11.70
2018,06,01,15,06,11.70
2018,06,01,15,07,11.60
2018,06,01,15,08,11.60
2018,06,01,15,09,11.50
2018,06,01,15,10,11.50
2018,06,01,15,11,11.50
2018,06,01,15,12,11.40
2018,06,01,15,13,11.40
2018,06,01,15,14,11.40
2018,06,01,15,15,11.40
2018,06,01,15,16,11.40
2018,06,01,15,17,11.40
2018,06,01,15,18,11.30
2018,06,01,15,19,11.30
2018,06,01,15,20,11.30
2018,06,01,15,21,11.30
2018,06,01,15,22,11.30
2018,06,01,15,23,11.30
2018,06,01,15,24,11.30
2018,06,01,15,25,11.20
2018,06,01,15,26,11.20
2018,06,01,15,27,11.30
2018,06,01,15,28,11.30
2018,06,01,15,29,11.30
2018,06,01,15,30,11.20
2018,06,01,15,31,11.20
2018,06,01,15,32,11.20
2018,06,01,15,33,11.20
2018,06,01,15,34,11.20
2018,06,01,15,35,11.20
2018,06,01,15,36,11.20
2018,06,01,15,37,11.20
2018,06,01,15,38,11.20
2018,06,01,15,39,11.30
2018,06,01,15,40,11.30
2018,06,01,15,41,11.30
2018,06,01,15,42,11.30
2018,06,01,15,43,11.30
2018,06,01,15,44,11.30
2018,06,01,15,45,11.30
2018,06,01,15,46,11.30
2018,06,01,15,47,11.30
2018,06,01,15,48,11.40
2018,06,01,15,49,11.40
2018,06,01,15,50,11.40
2018,06,01,15,51,11.40
2018,06,01,15,52,11.40
2018,06,01,15,53,11.40
2018,06,01,15,54,11.50
2018,06,01,15,55,11.50
2018,06,01,15,56,11.50
2018,06,01,15,57,11.50
2018,06,01,15,58,11.50
2018,06,01,15,59,11.50
2018,06,01,16,00,11.50
2018,06,01,16,01,11.50
2018,06,01,16,02,11.50
2018,06,01,16,03,11.50
2018,06,01,16,04,11.50
2018,06,01,16,05,11.50
2018,06,01,16,06,11.50
2018,06,01,16,07,11.50
2018,06,01,16,08,11.50
2018,06,01,16,09,11.50
2018,06,01,16,10,11.50
2018,06,01,16,11,11.50
2018,06,01,16,12,11.40
2018,06,01,16,13,11.40
2018,06,01,16,14,11.40
2018,06,01,16,15,11.40
2018,06,01,16,16,11.40
2018,06,01,16,17,11.40
2018,06,01,16,18,11.40
2018,06,01,16,19,11.40
2018,06,01,16,20,11.40
2018,06,01,16,21,11.30
2018,06,01,16,22,11.30
2018,06,01,16,23,11.30
2018,06,01,16,24,11.30
2018,06,01,16,25,11.30
2018,06,01,16,26,11.30
2018,06,01,16,27,11.30
2018,06,01,16,28,11.30
2018,06,01,16,29,11.30
2018,06,01,16,30,11.30
2018,06,01,16,31,11.30
2018,06,01,16,32,11.30
2018,06,01,16,33,11.30
2018,06,01,16,34,11.30
2018,06,01,16,35,11.30
2018,06,01,16,36,11.30
2018,06,01,16,37,11.40
2018,06,01,16,38,11.40
2018,06,01,16,39,11.40
2018,06,01,16,40,11.40
2018,06,01,16,41,11.40
2018,06,01,16,42,11.50
2018,06,01,16,43,11.50
2018,06,01,16,44,11.50
2018,06,01,16,45,11.50
2018,06,01,16,46,11.40
2018,06,01,16,47,11.40
2018,06,01,16,48,11.40
2018,06,01,16,49,11.40
2018,06,01,16,50,11.30
2018,06,01,16,51,11.30
2018,06,01,16,52,11.30
2018,06,01,16,53,11.30
2018,06,01,16,54,11.20
2018,06,01,16,55,11.20
2018,06,01,16,56,11.20
2018,06,01,16,57,11.20
2018,06,01,16,58,11.20
2018,06,01,16,59,11.10
2018,06,01,17,00,11.20
2018,06,01,17,01,11.10
2018,06,01,17,02,11.10
2018,06,01,17,03,11.10
2018,06,01,17,04,11.10
2018,06,01,17,05,11.10
2018,06,01,17,06,11.10
2018,06,01,17,07,11.10
2018,06,01,17,08,11.10
2018,06,01,17,09,11.10
2018,06,01,17,10,11.10
2018,06,01,17,11,11.10
2018,06,01,17,12,11.10
2018,06,01,17,13,11.10
2018,06,01,17,14,11.10
2018,06,01,17,15,11.10
2018,06,01,17,16,11.10
2018,06,01,17,17,11.10
2018,06,01,17,18,11.10
2018,06,01,17,19,11.10
2018,06,01,17,20,11.10
2018,06,01,17,21,11.10
2018,06,01,17,22,11.10
2018,06,01,17,23,11.10
2018,06,01,17,24,11.10
2018,06,01,17,25,11.10
2018,06,01,17,26,11.10
2018,06,01,17,27,11.10
2018,06,01,17,28,11.10
2018,06,01,17,29,11.20
2018,06,01,17,30,11.20
2018,06,01,17,31,11.20
2018,06,01,17,32,11.20
2018,06,01,17,33,11.20
2018,06,01,17,34,11.20
2018,06,01,17,35,11.20
2018,06,01,17,36,11.20
2018,06,01,17,37,11.20
2018,06,01,17,38,11.20
2018,06,01,17,39,11.20
2018,06,01,17,40,11.20
2018,06,01,17,41,11.30
2018,06,01,17,42,11.30
2018,06,01,17,43,11.30
2018,06,01,17,44,11.30
2018,06,01,17,45,11.30
2018,06,01,17,46,11.30
2018,06,01,17,47,11.30
2018,06,01,17,48,11.30
2018,06,01,17,49,11.30
2018,06,01,17,50,11.30
2018,06,01,17,51,11.30
2018,06,01,17,52,11.30
2018,06,01,17,53,11.30
2018,06,01,17,54,11.30
2018,06,01,17,55,11.30
2018,06,01,17,56,11.30
2018,06,01,17,57,11.30
2018,06,01,17,58,11.30
2018,06,01,17,59,11.30
2018,06,01,18,00,11.30
2018,06,01,18,01,11.30
2018,06,01,18,02,11.30
2018,06,01,18,03,11.30
2018,06,01,18,04,11.30
2018,06,01,18,05,11.30
2018,06,01,18,06,11.20
2018,06,01,18,07,11.30
2018,06,01,18,08,11.20
2018,06,01,18,09,11.20
2018,06,01,18,10,11.20
2018,06,01,18,11,11.20
2018,06,01,18,12,11.10
2018,06,01,18,13,11.10
2018,06,01,18,14,11.10
2018,06,01,18,15,11.10
2018,06,01,18,16,11.10
2018,06,01,18,17,11.10
2018,06,01,18,18,11.10
2018,06,01,18,19,11.10
2018,06,01,18,20,11.10
2018,06,01,18,21,11.10
2018,06,01,18,22,11.00
2018,06,01,18,23,11.00
2018,06,01,18,24,11.00
2018,06,01,18,25,11.00
2018,06,01,18,26,11.00
2018,06,01,18,27,11.00
2018,06,01,18,28,11.00
2018,06,01,18,29,11.00
2018,06,01,18,30,11.00
2018,06,01,18,31,11.00
2018,06,01,18,32,11.00
2018,06,01,18,33,11.00
2018,06,01,18,34,11.00
2018,06,01,18,35,11.00
2018,06,01,18,36,11.00
2018,06,01,18,37,11.00
2018,06,01,18,38,11.00
2018,06,01,18,39,11.00
2018,06,01,18,40,11.00
2018,06,01,18,41,11.00
2018,06,01,18,42,11.00
2018,06,01,18,43,11.00
